Location: Bosmont
(49.7318°N, 3.8587°E)
Time: 09:12:15
(UTC+00:00)

Cosmos 1980 - Pass Details

Date: 08 February 2023
Orbit: 838 x 847 km, 71.0° (Epoch: 23 March)

Event Time Altitude Azimuth Distance (km) Brightness Sun altitude
Rises 18:50:42 0° 182° (S) 3,377 6.9 -19.7°
Reaches altitude 10° 18:53:16 10° 175° (S) 2,447 6.0 -20.1°
Enters shadow 18:58:04 39° 117° (ESE) 1,249 4.1 -20.9°
